246  
NZUS99 KSGF 230407  
HRRSGF  
 
HOURLY WEATHER  
NATIONAL WEATHER SERVICE SPRINGFIELD MO  
1100 PM CDT SAT JUL 22 2017  
   
.....SGF CWA...
 
 
 
CITY SKY/WX TMP DP RH WIND PRES REMARKS  
SPRINGFIELD CLEAR 84 74 71 S8 29.90R HX 91  
JOPLIN CLEAR 87 74 64 S10 29.88R HX 95  
WEST PLAINS CLEAR 82 72 71 SW7 29.93S  
ROLLA PTCLDY 83 73 72 SW7 29.87R  
OSAGE BEACH CLEAR 87 73 62 S6 29.86S HX 94  
BRANSON CLEAR 82 68 61 S5 29.94S  
   
.....SURROUNDING SGF CWA...
 
 
 
CITY SKY/WX TMP DP RH WIND PRES REMARKS  
CHANUTE CLEAR 87 72 60 VRB5 29.89R HX 93  
PARSONS CLEAR 85 72 65 S6 29.87R HX 91  
COFFEYVILLE CLEAR 85 72 65 S9 29.85S HX 91  
EMPORIA CLOUDY 71 67 87 NE16 29.98R  
GROVE OK CLEAR 82 72 69 S5 29.89S  
ROGERS AR CLEAR 83 72 69 S8 29.94S  
SILOAM SPRINGS CLEAR 81 66 61 S5 29.93S  
HARRISON AR CLEAR 78 71 79 S6 29.93F  
NEAR YELLVILLE CLEAR 82 70 65 CALM 29.88F  
   
.....KANSAS AND MISSOURI...
 
 
 
CITY SKY/WX TMP DP RH WIND PRES REMARKS  
KANSAS CTY INT CLOUDY 71 68 90 S9G22 29.97R THUNDER  
DOWNTOWN KC TSTM 72 66 81 E8 29.96F  
COLUMBIA MOCLDY 83 78 85 CALM 29.84R HX 93  
SEDALIA CLOUDY 89 78 70 W3 29.85R HX 103  
ST JOSEPH CLOUDY 82 76 81 W8 29.92R  
ST LOUIS CLOUDY 92 72 51 SW12 29.82R THUNDER HX 99  
SPIRIT OF STL PTCLDY 77 73 87 SW3 29.80R THUNDER  
KIRKSVILLE CLOUDY 81 74 79 N9 29.88R  
WICHITA TSTM 76 71 85 N18G28 29.97R  
TOPEKA TSTM 74 73 97 W14G20 29.98R  
OLATHE TSTM 67 66 97 NE16G29 29.92F  
   
.....TENNESSEE...
 
 
 
CITY SKY/WX TMP DP RH WIND PRES REMARKS  
MEMPHIS PTCLDY 85 75 72 SW8 29.92S HX 93  
NASHVILLE CLEAR 85 73 67 SW6 29.93S HX 91  
   
.....ARKANSAS....
 
 
 
CITY SKY/WX TMP DP RH WIND PRES REMARKS  
FAYETTEVILLE CLEAR 76 75 97 S5 29.93F  
FT SMITH CLEAR 87 73 62 S8 29.89R HX 94  
LITTLE ROCK PTCLDY 83 77 82 S7 29.91S HX 92  
   
.....OKLAHOMA....
 
 
 
CITY SKY/WX TMP DP RH WIND PRES REMARKS  
TULSA CLEAR 90 73 57 S14 29.86R HX 98  
PONCA CITY CLEAR 91 70 49 S12G20 29.86R HX 96  
MCALESTER CLEAR 85 73 67 S5 29.91R HX 91  
OKLAHOMA CITY PTCLDY 87 71 58 S13 29.90R HX 93  
   
.....IOWA.........
 
 
 
CITY SKY/WX TMP DP RH WIND PRES REMARKS  
DES MOINES CLOUDY 80 74 81 W3 29.87S  
QUAD CITIES CLEAR 76 73 91 S3 29.82R  
   
.....ILLINOIS.....
 
 
 
CITY SKY/WX TMP DP RH WIND PRES REMARKS  
QUINCY CLOUDY 82 79 90 N8 29.81F HX 92  
CHICAGO PTCLDY 75 68 78 E5 29.81F  
 
CLICK HERE TO GO TO PREVIOUS BULLETINS.

The Nexlab MO Page
The Nexlab KS Page Main Text Page